Flag for Brazil Weather past 2 weeks in Rio Branco, Acre, Brazil

Now
75 °F

Partly cloudy.


Feels Like: 74 °F
Forecast: 71 / 86 °F
Wind: 7 mph from North

Location: Rio Branco Airport

Current Time: May 5, 2015 at 8:26:12 PM

Latest Report: May 5, 2015 at 7:00 PM


Visibility: N/A

Pressure: 29.95 "Hg

Humidity: 94%

Dew point: 73 °F

Location of Rio BrancoLocation

Historic Weather in Rio Branco — Graph

°F

Rio Branco temperature yesterday

Maximum temperature yesterday: 84 °F (at 10:00 AM)
Minimum temperature yesterday: 72 °F (at 9:00 PM)
Average temperature yesterday: 78 °F

Past Weeks' High & Low Weather Summary

 TemperatureHumidityPressure
High97 °F (Apr 29, 10:45 AM)100% (Apr 20, 9:00 PM)30.04 "Hg (Apr 20, 9:00 PM)
Low72 °F (Apr 23, 2:00 AM)50% (Apr 29, 10:45 AM)29.74 "Hg (Apr 27, 3:00 PM)
Average77 °F90%29.89 "Hg
* Reported Apr 20 7:00 PM — May 5 7:00 PM, Rio Branco, Weather by CustomWeather, © 2015

Note: Actual official high and low records may vary slightly from our data, if they occured in-between our weather recording intervals... More about our weather records

Advertising

Rio Branco weather history for previous 24 hours

 ConditionsComfort  
Time TempWeatherWind HumidityBarometerVisibility
7:00 PM
Tue, May 5
75 °FPartly cloudy.7 mph94%29.95 "HgN/A
6:00 PM75 °FLight rain. Broken clouds.2 mph94%29.92 "Hg5 mi
5:00 PM75 °FLight rain. Partly sunny.8 mph94%29.89 "Hg2 mi
4:45 PM75 °FLight rain. Partly sunny.8 mph94%29.92 "Hg2 mi
4:00 PM81 °FPartly sunny.3 mph79%29.89 "HgN/A
3:00 PM81 °FScattered clouds.3 mph79%29.89 "HgN/A
2:00 PM82 °FBroken clouds.6 mph74%29.92 "HgN/A
1:00 PM79 °FBroken clouds.7 mph84%29.95 "HgN/A
12:00 PM77 °FBroken clouds.3 mph89%29.98 "HgN/A
11:00 AM77 °FLight rain. Broken clouds.2 mph83%30.04 "Hg5 mi
10:00 AM79 °FBroken clouds.3 mph79%30.04 "HgN/A
9:00 AM75 °FBroken clouds.2 mph94%30.04 "HgN/A
8:00 AM73 °FPartly sunny.2 mph94%30.01 "HgN/A
7:00 AM73 °FPartly sunny.3 mph94%29.98 "HgN/A
6:00 AM72 °FPassing clouds.No wind100%29.95 "HgN/A
5:00 AM72 °FPassing clouds.2 mph100%29.92 "HgN/A
4:00 AM72 °FPassing clouds.2 mph100%29.92 "HgN/A
3:00 AM72 °FPassing clouds.1 mph100%29.92 "HgN/A
2:00 AM73 °FPassing clouds.3 mph94%29.92 "HgN/A
1:00 AM73 °FPassing clouds.3 mph94%29.92 "HgN/A
12:00 AM73 °FPartly cloudy.5 mph94%29.95 "HgN/A
11:00 PM
Mon, May 4
73 °FLight rain. Partly cloudy.7 mph94%29.95 "Hg5 mi
10:00 PM73 °FLight rain. Partly cloudy.12 mph94%29.98 "Hg5 mi
9:00 PM72 °FLight rain. Overcast.5 mph100%29.98 "Hg4 mi
8:00 PM73 °FThunderstorms. Overcast.7 mph94%29.95 "Hg2 mi
Weather by CustomWeather, © 2015

See weather overviewHow to use our weather pages